TIME,DELAY(SENSOR),PRES,T(CTD),SAL,OXYGEN,RAWTEMP,T(OPTODE),TCPHASE,FLUOR,BETA(BETA700),BETA(BETA412),BETA(BETA440),CDOM,C(CSC),ED(ED411.90),ED(ED443.80),ED(ED489.40),ED(ED554.70),LU(LU412.20),LU(LU443.80),LU(LU489.40),LU(LU555.00),COMP,TILTX,TILTX(TILTY),CHECK
1369065082,5806,497.0100097656250000,17.6821002960205080,36.4850006103515600,221.3683929443359400,165.8520050048828000,17.6781902313232420,31.5588703155517580,50,101,95,79,67,10488,2146959643,2147515830,2147267949,2147457216,2147081289,2146953280,2147652525,2147127533,2577,-1,8,61498
1369065203,5804,485.8500061035156000,17.7989006042480470,36.5096015930175800,225.6325988769531200,162.0520019531250000,17.7928905487060550,31.2884292602539060,51,100,95,80,67,10487,2146957430,2147514669,2147267291,2147455661,2147082916,2146961334,2147651008,2147130102,2196,-1,8,12781
1369065315,5804,475.2099914550781000,17.8553009033203120,36.5182991027832000,226.2149963378906200,160.1643066406250000,17.8498802185058600,31.2332801818847660,50,101,96,80,67,10487,2146956918,2147516516,2147269056,2147455259,2147082441,2146955885,2147650102,2147129444,2009,-1,8,61684
1369065425,5808,464.2799987792969000,17.9130992889404300,36.5266990661621100,225.6958007812500000,158.1773071289062500,17.9098701477050780,31.2325992584228500,51,101,94,81,67,10484,2146955565,2147514587,2147269138,2147453915,2147083593,2146962953,2147651026,2147128731,1760,-1,8,61935
1369065535,5805,453.2000122070312500,17.9960994720459000,36.5424003601074200,227.3795013427734400,155.5339965820312500,17.9896907806396500,31.1123008728027340,50,101,95,79,68,10486,2146959771,2147516233,2147264886,2147453156,2147080896,2146964489,2147648676,2147126582,968,-1,8,44673
1369065647,5804,441.7999877929687500,18.0354995727539060,36.5480003356933600,227.2691040039062500,154.1622924804687500,18.0311107635498050,31.0994205474853500,51,102,95,81,67,10483,2146955684,2147514057,2147267419,2147453275,2147073426,2146957513,2147650605,2147123318,1135,-1,8,11766
1369065757,5806,430.6000061035156000,18.0958003997802730,36.5555992126464840,226.8327026367187500,152.2153930664062500,18.0899200439453120,31.0952396392822270,50,101,95,80,68,10486,2146958445,2147515446,2147267254,2147451236,2147073517,2146957467,2147648036,2147125888,428,-1,8,46733
1369065867,5805,419.6499938964844000,18.1536006927490230,36.5620994567871100,226.3612060546875000,150.1674957275390600,18.1517791748046880,31.0909996032714840,50,102,94,79,67,10489,2146954249,2147512493,2147266066,2147449243,2147082102,2146959524,2147646436,2147123940,3138,-1,8,59723
1369065985,5802,409.7099914550781000,18.2115001678466800,36.5691986083984400,225.4817047119140600,148.1699066162109400,18.2121295928955080,31.1085395812988280,51,101,95,80,67,10485,2146958244,2147515337,2147266898,2147451200,2147069988,2146959963,2147654299,2147127625,2906,-1,9,47818
1369066150,5805,399.1700134277344000,18.2506999969482420,36.5723991394043000,224.3601074218750000,147.0605926513672000,18.2456493377685550,31.1506004333496100,50,104,96,80,68,10481,2146959296,2147512649,2147266075,2147450678,2147078491,2146965266,2147646372,2147128749,3077,-1,8,1333
1369066315,5802,387.0299987792969000,18.3651008605957030,36.5839996337890600,224.6042022705078000,143.2767944335937500,18.3599891662597660,31.0871200561523440,51,100,96,81,68,10480,2146958116,2147518592,2147266834,2147449746,2147075081,2146960850,2147648365,2147126912,2832,-1,8,33745
1369066436,5803,376.4500122070312500,18.4657993316650400,36.5924987792968750,223.0213928222656200,139.9031066894531200,18.4619693756103500,31.1224098205566400,50,101,95,81,67,10483,2146960457,2147517321,2147264649,2147448374,2147077284,2146963995,2147647762,2147126857,3047,-1,8,17767
1369066560,5804,365.5899963378906000,18.5445003509521500,36.5996017456054700,222.0137023925781200,137.2342071533203000,18.5426692962646500,31.1384391784667970,50,104,95,81,67,10479,2146957622,2147516461,2147266002,2147450880,2147075913,2146962121,2147648374,2147126034,2367,-2,8,60666
1369066692,5807,353.7900085449219000,18.5771007537841800,36.5805015563964840,235.2754058837890600,136.1170043945312500,18.5764503479003900,30.4658107757568360,50,105,97,81,65,10470,2146958016,2147518418,2147264393,2147448338,2147076864,2146963108,2147649773,2147127625,2168,-2,8,16680
1369066813,5802,342.9500122070312500,18.7115001678466800,36.5970993041992200,227.8034057617187500,131.9102935791015600,18.7036800384521500,30.7744808197021500,50,101,95,82,68,10483,2146960877,2147516278,2147264713,2147449901,2147076754,2146968091,2147651611,2147125613,1468,-1,8,43486
1369066936,5803,331.9899902343750000,18.7931995391845700,36.5960998535156250,226.5209045410156200,129.0220031738281200,18.7910709381103500,30.8000602722167970,50,102,94,81,67,10477,2146957147,2147515145,2147266514,2147447579,2147080484,2146964507,2147650816,2147126299,2020,-1,8,57195
1369067057,5807,321.2699890136719000,18.9332008361816400,36.5948982238769500,229.3775024414062500,124.6080017089843800,18.9246501922607420,30.5996398925781250,51,106,95,82,66,10470,2146962029,2147520347,2147260800,2147447259,2147076187,2146963693,2147648512,2147127561,1760,-1,8,34030
1369067181,5809,310.8800048828125000,19.0167999267578120,36.5881996154785160,237.7519989013672000,121.8821029663086000,19.0071697235107420,30.1603507995605470,50,104,96,81,64,10466,2146959552,2147513353,2147263808,2147446153,2147075538,2146959890,2147651940,2147128310,1834,-1,8,31298
1369067324,5806,299.7999877929687500,19.1259994506835940,36.5876998901367200,239.8065948486328000,118.0809020996093800,19.1222801208496100,30.0142803192138670,50,104,95,82,65,10475,2146956781,2147514331,2147260891,2147447451,2147080438,2146964580,2147646610,2147130240,1199,-1,8,32206
1369067500,5804,286.3699951171875000,19.1602001190185550,36.5812988281250000,246.6363983154297000,116.9188003540039000,19.1574802398681640,29.6865692138671880,50,105,96,81,63,10469,2146957440,2147516077,2147263588,2147445814,2147078144,2146965668,2147652644,2147126390,1195,-1,8,32854
1369067611,5803,275.4200134277344000,19.2865009307861330,36.5920982360839840,244.1192932128906200,112.7302017211914000,19.2843704223632800,29.7460594177246100,50,105,97,83,64,10474,2146959661,2147517302,2147266505,2147443044,2147074294,2146968091,2147651611,2147128320,1217,-1,8,65025
1369067721,5806,264.4299926757812500,19.3798999786376950,36.5946006774902340,244.7108001708984400,109.7731018066406200,19.3739891052246100,29.6807804107666000,51,107,96,82,64,10465,2146957147,2147518134,2147265380,2147445293,2147078546,2146971428,2147660507,2147130148,1239,-1,8,27118
1369067833,5807,253.1399993896484400,19.4496002197265620,36.5976982116699200,245.9069976806640600,107.4231033325195300,19.4452304840087900,29.5963001251220700,51,108,96,82,63,10468,2146954230,2147516205,2147264466,2147444608,2147080521,2146974345,2147650880,2147128868,1427,-1,8,51670
1369067943,5807,241.9799957275390600,19.5307998657226560,36.5996017456054700,247.1764068603515600,104.8021011352539000,19.5247097015380860,29.5052299499511720,52,111,98,82,64,10458,2146958061,2147521426,2147264429,2147443309,2147081709,2146986541,2147700352,2147130194,892,-1,8,37108
1369068053,5805,230.6799926757812500,19.5974006652832030,36.5984992980957000,248.9033966064453000,102.3252029418945300,19.5998306274414060,29.3961391448974600,52,107,97,83,63,10464,2146957037,2147518409,2147261705,2147443739,2147076745,2146984758,2147686290,2147131465,974,-1,8,45601
1369068170,5807,220.3200073242187500,19.6618003845214840,36.5997009277343750,250.5446014404297000,100.3184967041015600,19.6607093811035160,29.2979698181152340,55,110,97,84,63,10461,2146954971,2147516214,2147263570,2147440978,2147084013,2147011401,2147729718,2147131126,586,-1,8,3577
1369068324,5803,209.6100006103515600,19.7311992645263670,36.6039009094238300,250.0063934326172000,98.1216583251953100,19.7273807525634770,29.2934093475341800,56,113,98,83,64,10452,2146953984,2147516077,2147269961,2147441792,2147088749,2147052507,2147827108,2147139145,3233,-1,9,58189
1369068476,5808,198.1699981689453000,19.8393993377685550,36.6136016845703100,250.9299011230468800,94.6404495239257800,19.8330402374267580,29.2083396911621100,61,109,99,81,64,10457,2146956379,2147519113,2147271277,2147444361,2147100324,2147087488,2147894116,2147141970,30,-1,8,55788
1369068531,5806,193.1900024414062500,19.8502998352050780,36.6109008789062500,251.5706939697265600,93.9552612304687500,19.8538494110107420,29.1714591979980470,63,113,98,83,64,10445,2146957220,2147515629,2147267812,2147441984,2147090550,2147026477,2147762532,2147134299,3245,-1,9,59555
1369068586,5803,188.1900024414062500,19.8857994079589840,36.6116981506347660,251.2416992187500000,92.9336166381836000,19.8848590850830080,29.1728000640869140,66,110,98,82,64,10446,2146958720,2147516516,2147267291,2147441645,2147092900,2147051218,2147801682,2147137627,3331,-1,8,53105
1369068641,5806,183.2799987792968800,19.9132003784179700,36.6105003356933600,249.9707946777343800,92.0357131958007800,19.9121303558349600,29.2172203063964840,65,110,97,83,63,10449,2146956726,2147518235,2147266816,2147437641,2147093385,2147045110,2147795483,2147135478,3399,-1,9,62
1369068696,5806,178.3600006103515600,19.9384002685546880,36.6101989746093750,249.1174011230468800,91.2767562866211000,19.9351806640625000,29.2448692321777340,68,112,97,83,63,10450,2146956096,2147519707,2147270985,2147442185,2147111360,2147125696,2147953993,2147145261,424,-1,8,17175
1369068771,5809,172.1000061035156200,19.9652004241943360,36.6071014404296900,249.3840026855468800,90.1941528320312500,19.9680595397949220,29.2193393707275400,72,111,98,82,63,10447,2146959533,2147524041,2147283410,2147440822,2147137536,2147254884,2148196553,2147157723,73,-1,8,31067
1369068826,5805,167.7899932861328000,20.0062999725341800,36.6058006286621100,249.2861938476562500,88.8829803466796900,20.0078907012939450,29.2066707611084000,74,111,96,83,62,10440,2146958710,2147515254,2147270665,2147439689,2147105170,2147076571,2147840109,2147138249,3516,-1,9,60977
1369068881,5804,163.5299987792968800,20.0405006408691400,36.6077003479003900,249.3845977783203000,87.8034973144531200,20.0406894683837900,29.1885509490966800,76,111,97,82,63,10438,2146959232,2147516004,2147270875,2147440320,2147117769,2147128676,2147933805,2147143021,243,-1,8,45155
1369068936,5806,159.3800048828125000,20.0898990631103500,36.5997009277343750,249.7566986083984400,86.1920928955078100,20.0896492004394530,29.1516609191894530,80,111,98,83,63,10438,2146957796,2147516918,2147270884,2147439021,2147121078,2147128649,2147942848,2147148077,3509,-2,8,23058
1369068991,5808,155.2599945068359400,20.1702003479003900,36.6064987182617200,250.2868957519531200,83.5953063964843800,20.1685791015625000,29.0950698852539060,79,111,97,83,64,10435,2146960603,2147522898,2147290989,2147437485,2147195218,2147439808,2148517705,2147176438,2767,-1,8,52808
1369069046,5806,151.1699981689453000,20.2738990783691400,36.6092987060546900,251.2500000000000000,80.1799011230468800,20.2724208831787100,29.0095100402832030,78,112,97,83,64,10436,2146958107,2147524416,2147280740,2147439753,2147154916,2147256100,2148162624,2147156022,3268,-2,8,17818
1369069124,5804,146.1000061035156200,20.4393005371093750,36.6235008239746100,254.4078063964843800,75.3309631347656200,20.4199295043945300,28.8113403320312500,75,112,98,83,65,10437,2146957065,2147529938,2147294372,2147439378,2147226578,2147504228,2148585261,2147184969,2509,-2,9,52466
1369069190,5800,142.7299957275390600,20.4698009490966800,36.6129989624023440,256.3208007812500000,73.8143463134765600,20.4660892486572270,28.7105007171630860,74,112,98,82,63,10436,2146959680,2147535579,2147306340,2147436452,2147292617,2147703963,2148938669,2147208530,2014,-1,9,59079
1369069278,5805,138.7700042724609400,20.5622997283935550,36.6092987060546900,258.0533142089844000,70.9785919189453100,20.5524101257324220,28.6012592315673830,72,110,98,84,64,10431,2146959195,2147521481,2147279369,2147438061,2147180416,2147281508,2148161280,2147160630,1217,-1,9,37949
1369069377,5808,134.6600036621093800,20.6042003631591800,36.6066017150878900,259.2424926757812500,69.6392898559570300,20.5931892395019530,28.5345306396484380,72,117,99,84,64,10418,2146962121,2147524150,2147284205,2147437696,2147228982,2147415058,2148371776,2147174601,720,-1,9,63148
1369069467,5802,131.0200042724609400,20.7187004089355470,36.5937995910644500,260.2106018066406000,65.9967880249023400,20.7041397094726560,28.4481391906738280,75,119,99,84,63,10415,2146963136,2147539620,2147320036,2147437522,2147399424,2147894217,2149191917,2147228790,1001,-1,9,16339
1369069577,5804,126.9199981689453100,20.8672008514404300,36.6021003723144500,258.8163146972656000,61.0143013000488300,20.8559894561767580,28.4438896179199220,85,115,99,83,63,10424,2146971510,2147549037,2147346294,2147439981,2147571355,2148346742,2149925796,2147277101,1046,-1,9,3448
1369069687,5806,122.7799987792968800,21.0673007965087900,36.6194992065429700,256.8544921875000000,54.8326606750488300,21.0445308685302730,28.4487991333007800,90,114,97,83,64,10421,2146971885,2147560704,2147357869,2147441700,2147693184,2148606838,2150288347,2147302409,23,-1,8,12698
1369069784,5805,118.8000030517578100,21.1916007995605470,36.6232986450195300,252.7635955810547000,50.2086410522460940,21.1856803894042970,28.5651206970214840,89,112,97,83,63,10424,2146975844,2147570505,2147369014,2147439286,2147833142,2148877915,2150660790,2147332269,2692,-1,9,31042
1369069883,5807,114.5500030517578100,21.4764003753662100,36.6670989990234400,245.0796966552734400,41.5995903015136700,21.4487209320068360,28.7924308776855470,81,113,97,83,65,10430,2146972443,2147544960,2147323693,2147438390,2147601837,2148187785,2149479241,2147254756,1800,-1,8,24028
1369069982,5806,110.9700012207031200,21.5449008941650400,36.6902999877929700,232.3152008056640600,38.7694396972656250,21.5352706909179700,29.3421592712402340,74,117,96,83,63,10431,2146978907,2147560923,2147356022,2147437796,2147918326,2148887442,2150527277,2147330395,1266,-2,9,42371
1369070084,5807,106.4499969482421900,21.7241992950439450,36.6468009948730500,224.7675933837890600,33.1068687438964840,21.7085494995117200,29.6340808868408200,94,121,99,83,64,10422,2146994029,2147590966,2147417609,2147438272,2148352502,2149718016,2151733001,2147421613,910,-1,8,57174
1369070161,5808,102.6600036621093800,21.8866004943847660,36.6110992431640600,227.6080017089843800,27.2169303894042970,21.8889598846435550,29.4201393127441400,119,123,99,83,64,10393,2146996900,2147587584,2147404306,2147438290,2148429412,2149658304,2151534363,2147421412,908,-1,9,17111
1369070249,5806,98.8700027465820300,22.0986003875732420,36.5867004394531250,241.0090942382812500,21.1170101165771500,22.0759792327880860,28.7167396545410160,133,148,106,88,62,10353,2146978084,2147546102,2147320109,2147431561,2147700452,2148095213,2149158628,2147247908,1539,-1,9,20796
1369070304,5808,96.8199996948242200,22.1077003479003900,36.5844993591308600,244.6773986816406200,20.4696903228759770,22.0958404541015620,28.5447502136230470,135,136,104,90,63,10354,2146979529,2147554477,2147337508,2147435163,2147874249,2148374720,2149579510,2147280237,1729,-1,9,4826
1369070361,5807,94.7900009155273400,22.1060009002685550,36.5724983215332000,247.4774017333984400,20.3085002899169920,22.1007900238037100,28.4195499420166000,138,138,104,89,63,10358,2146984064,2147560393,2147347456,2147434377,2148030674,2148605686,2149877860,2147308781,1699,-1,9,17378
1369070416,5804,93.0500030517578100,22.1051998138427730,36.5671997070312500,249.3227996826172000,20.0381393432617200,22.1090793609619140,28.3358402252197270,135,144,105,87,63,10326,2146990848,2147575945,2147377545,2147434660,2148295168,2149045092,2150518848,2147359661,2078,-1,9,62469
1369070482,5804,91.4100036621093800,22.2357006072998050,36.4981994628906250,251.2924957275390600,16.5830898284912100,22.2151203155517580,28.2080001831054700,120,137,106,89,63,10342,2146994797,2147574162,2147378121,2147434953,2148341312,2149040210,2150455524,2147359917,2386,-1,9,15275
1369070748,5802,88.9499969482421900,22.2192993164062500,36.4472007751464840,256.2890930175781000,16.5833797454834000,22.2151107788085940,27.9963207244873050,100,135,105,88,61,10340,2147065810,2147685138,2147584594,2147444333,2150630354,2152688393,2155442752,2147787062,2915,-2,9,35520
1369070803,5805,87.0400009155273400,22.2315006256103500,36.4435005187988300,257.9596862792969000,15.9487495422363280,22.2345905303955080,27.9187297821044920,103,130,104,88,60,10352,2147102381,2147738880,2147673929,2147449408,2151978816,2154738514,2158163721,2148029284,2514,-1,9,44985
1369070858,5805,85.0400009155273400,22.2574005126953120,36.4435005187988300,258.1438903808594000,15.3263998031616210,22.2537002563476560,27.9032402038574220,105,133,107,91,60,10344,2147117229,2147756992,2147704804,2147448905,2152392219,2155175030,2158590912,2148060708,2125,-2,9,25207
1369070913,5807,82.9800033569336000,22.2751007080078120,36.4402008056640600,258.2208862304687500,14.7365102767944340,22.2718200683593750,27.8928108215332030,103,138,106,87,60,10337,2147158555,2147818459,2147804854,2147456704,2153791104,2157130230,2161118080,2148312667,1851,-1,9,15836
1369070990,5804,79.5299987792968800,22.3052005767822270,36.4425010681152340,257.7533874511719000,13.8750801086425780,22.2982692718505860,27.9016609191894530,101,142,107,89,61,10349,2147201051,2147866102,2147877942,2147462034,2155313737,2159056640,2163325339,2148555017,2155,-1,9,46038
1369071045,5807,76.3399963378906200,22.3470001220703120,36.4133987426757800,259.9861145019531000,12.0329399108886720,22.3548603057861330,27.7865390777587900,91,137,103,89,61,10339,2147094957,2147697636,2147572352,2147444626,2151682907,2153299584,2155394148,2147809069,2485,-1,8,44936
1369071100,5804,73.4000015258789000,22.5091991424560550,36.3871994018554700,262.0021972656250000,7.6564640998840330,22.4893798828125000,27.6502704620361330,95,142,107,89,60,10303,2147320164,2148020928,2148130852,2147481206,2159366564,2164247113,2169396470,2149188644,3025,-1,9,1269
1369071155,5804,71.0500030517578100,22.6450996398925780,36.3688011169433600,265.0893859863281000,2.9443318843841553,22.6343307495117200,27.4676704406738280,104,144,106,93,61,10280,2147141019,2147756882,2147660004,2147448841,2153051200,2154851062,2157015222,2147973275,3010,-2,9,7035
1369071210,5804,69.3099975585937500,22.7794990539550780,36.3870010375976560,262.2560119628906000,-1.2813719511032104,22.7644195556640620,27.5303592681884770,122,151,108,90,62,10289,2147214262,2147854665,2147827766,2147465014,2156413056,2159553801,2163037385,2148648155,2240,-1,9,13594
1369071265,5806,67.8300018310546900,22.8652992248535160,36.3807983398437500,262.1281127929687500,-3.7949409484863280,22.8418502807617200,27.5046501159667970,171,155,110,91,62,10250,2147157814,2147779766,2147714185,2147459602,2154377051,2156558692,2159171894,2148277714,1884,-1,9,39861
1369071333,5805,66.4100036621093800,22.8043994903564450,36.3406982421875000,264.8297119140625000,-3.1340448856353760,22.8214893341064450,27.4038791656494140,189,160,110,92,60,10263,2147381604,2148086683,2148276416,2147504128,2162286811,2167640283,2173708397,2149944036,1961,-1,9,17012
1369071553,5808,64.7900009155273400,22.8784008026123050,36.2812004089355500,284.4053955078125000,-4.3195281028747560,22.8580207824707030,26.6368904113769530,127,155,104,90,61,10305,2147144502,2147745252,2147650889,2147452452,2153543643,2155027958,2157119990,2148120676,2755,-1,9,63695
1369071698,5808,62.1199989318847660,23.1226005554199220,36.2995986938476560,266.7192077636719000,-11.8393898010253900,23.0899200439453120,27.2224292755126950,140,151,104,89,61,10293,2147143881,2147740315,2147638052,2147452845,2153588242,2154896475,2156882029,2148141577,2658,-1,9,48947
1369071775,5806,60.4399986267089840,23.3878002166748050,36.3321990966796900,270.0822143554687500,-20.9714603424072270,23.3719997406005860,26.9792900085449220,173,147,105,88,61,10275,2147543259,2148260516,2148557622,2147540507,2168258569,2174238875,2181547245,2151281462,2734,-1,8,59372
1369071953,5805,58.4500007629394500,23.9873008728027340,36.4183006286621100,289.3436889648437500,-40.4641609191894500,23.9758701324462900,26.0258903503417970,221,153,104,89,64,10228,2147546587,2148258112,2148627657,2147577819,2168794029,2174351433,2181638710,2151594660,430,-1,9,48637
1369072041,5807,56.4500007629394500,23.9734992980957030,36.2653007507324200,297.2539062500000000,-40.4023017883300800,23.9739608764648440,25.7475490570068360,223,157,103,90,64,10192,2147601828,2148320521,2148743862,2147600566,2170301476,2175893330,2183601581,2152102464,453,-1,8,29382
1369072416,5805,52.5699996948242200,24.5874004364013670,36.2037010192871100,305.7632141113281000,-58.9894218444824200,24.5521507263183600,25.2391891479492200,127,143,102,86,62,10283,2147880466,2148618185,2149125202,2147644708,2177406144,2183164864,2190766957,2153653421,376,-2,8,25041
1369072450,5804,51.9399986267089840,24.6266994476318360,36.2039985656738300,315.1907958984375000,-60.4971885681152340,24.5991592407226560,24.9112701416015620,95,136,101,86,61,10307,2147903369,2148635501,2149076845,2147614884,2178425673,2184384740,2192039268,2153877476,3442,-2,9,34449
1369072687,5805,49.9500007629394500,24.7220993041992200,36.1997985839843750,298.8208007812500000,-64.4014892578125000,24.7209606170654300,25.4114608764648440,83,126,99,86,59,10318,2148144137,2148890011,2149296466,2147612617,2186436096,2192819044,2198707867,2154736009,2763,-1,9,52534
1369072732,5807,48.7700004577636700,24.8234996795654300,36.1930999755859400,290.3977050781250000,-67.5459594726562500,24.8191509246826170,25.6685009002685550,79,128,99,86,59,10318,2147873261,2148547904,2148727222,2147563885,2174939593,2177887049,2179727661,2151921718,2730,-2,9,38159
1369072801,5806,46.8300018310546900,24.9335002899169920,36.1893997192382800,277.4324035644531000,-70.9038467407226600,24.9240703582763670,26.1005496978759770,82,127,100,86,63,10325,2148471222,2149254646,2149744210,2147673764,2197184950,2204306788,2209062518,2156600210,2382,-2,9,7356
1369072882,5805,44.9000015258789060,25.0172996520996100,36.1842994689941400,279.6925048828125000,-73.7906417846679700,25.0143508911132800,25.9823703765869140,78,125,100,86,58,10323,2148320786,2149058340,2149422144,2147646153,2188793371,2192917540,2194417161,2154178340,1946,-2,9,49793
1369072915,5806,43.7400016784668000,25.0489006042480470,36.1834983825683600,272.9447937011719000,-74.9468231201171900,25.0505199432373050,26.2215690612792970,78,126,99,85,59,10316,2148231506,2148950756,2149245540,2147640192,2188507300,2192589302,2193515840,2154247899,1654,-1,9,44921
1369072972,5807,41.6899986267089840,25.1576995849609380,36.1744995117187500,266.1455993652344000,-78.1904220581054700,25.1520500183105470,26.4450607299804700,76,125,100,87,60,10321,2147900059,2148532681,2148598372,2147571282,2178019968,2179509558,2178504466,2151792466,1651,-2,9,58286
1369073029,5807,39.7599983215332000,25.1898002624511720,36.1642990112304700,266.9880065917969000,-79.3624267578125000,25.1887607574462900,26.3982601165771500,84,125,100,86,61,10310,2149416000,2150298980,2151015286,2147857014,2232502674,2242072960,2242637348,2162943414,2007,-2,9,14234
1369073098,5805,37.5499992370605500,25.2637996673584000,36.1486015319824200,282.1748962402344000,-81.9508438110351600,25.2698707580566400,25.7945499420166000,82,128,99,86,61,10312,2148997504,2149802944,2150356617,2147811876,2218448201,2225150747,2223665636,2159725110,1654,-2,9,14177
1369073178,5807,35.1500015258789060,25.3666992187500000,36.1391983032226560,291.4106140136719000,-85.0006027221679700,25.3654994964599600,25.4277000427246100,79,125,101,85,61,10318,2149884251,2150792027,2151591195,2148025746,2249695625,2259505581,2256987867,2166964416,1796,-1,9,5135
1369073211,5805,33.7099990844726560,25.3840007781982420,36.1381988525390600,282.2536926269531000,-85.8562164306640600,25.3923397064209000,25.7456893920898440,73,124,100,85,59,10309,2150192777,2151139922,2152032685,2148101120,2261019172,2271441088,2267235584,2169039606,1723,-2,9,12193